Terminal Aerodrome Forecast
Issued by NWS Shreveport, LA

Home | Current Version | Previous Version | Text Only | Print | Product List | Glossary On
Versions: 1 2 3 4 5 6 7 8 9 10 11 12 13 14 15
000
FTUS44 KSHV 192300
TAFSHV
TAF
KSHV 192325Z 2000/2024 12004KT P6SM FEW060 BKN250
     FM200200 12003KT P6SM BKN250
     FM201600 14006KT P6SM SCT040 BKN250=

USA.gov is the U.S. government's official web portal to all federal, state and local government web resources and services.